GLOBALSTAR M053 [-]

Last updated on Thu Dec 28 2023 00:02:57 GMT+0000 (Coordinated Universal Time)

1 25886U 99043D 23361.29029477 -.00000058 00000+0 29800-3 0 9994 2 25886 52.0013 351.8562 0003275 250.2544 210.8782 11.27652675 58767

Satellite not in orbit